Location: Arborea
(39.7744°N, 8.5819°E)
Time: 03:37:31
(UTC+00:00)

CZ-2C R/B - Pass Details

Date: 24 October 2021
Orbit: 784 x 870 km, 98.2° (Epoch: 27 November)

Event Time Altitude Azimuth Distance (km) Brightness Sun altitude
Rises 17:00:56 0° 21° (NNE) 3,455 5.6 -6.0°
Reaches altitude 10° 17:03:30 10° 29° (NNE) 2,506 4.8 -6.4°
Maximum altitude 17:08:42 39° 97° (E) 1,256 3.2 -7.4°
Drops below altitude 10° 17:13:45 10° 165° (SSE) 2,445 5.1 -8.4°
Sets 17:16:14 0° 173° (S) 3,361 5.9 -8.9°
